"read_dt","SO2 (ppb)","flags","PMT voltage (V)","lamp voltage (V)","lamp intensity (Hz)","internal temp (C)","react chamber temp (C)","sample flow (l/min)","pres (mmHg)","SO2 bkg (ppb)","SO2 coefficient"
2015-03-19 00:00:00,1953E-3,5C000000,-0724,0834,12243,025.6,045.4,0.473,722.5,01.20,0.508
2015-03-19 00:01:00,1792E-3,5C000000,-0724,0835,12192,025.5,045.4,0.473,722.5,01.20,0.508
2015-03-19 00:02:00,1707E-3,5C000000,-0724,0835,11985,025.5,045.3,0.473,722.5,01.20,0.508
2015-03-19 00:03:00,1869E-3,5C000000,-0724,0834,12269,025.5,045.3,0.473,722.5,01.20,0.508
2015-03-19 00:04:00,1787E-3,5C000000,-0724,0834,12204,025.4,045.4,0.473,722.5,01.20,0.508
2015-03-19 00:05:00,1879E-3,5C000000,-0724,0834,12308,025.4,045.4,0.473,722.5,01.20,0.508
2015-03-19 00:06:00,1964E-3,5C000000,-0724,0834,12157,025.4,045.4,0.473,722.5,01.20,0.508
2015-03-19 00:07:00,1810E-3,5C000000,-0724,0835,12199,025.3,045.4,0.473,722.5,01.20,0.508
2015-03-19 00:08:00,1992E-3,5C000000,-0724,0836,12194,025.3,045.4,0.473,722.5,01.20,0.508
2015-03-19 00:09:00,1767E-3,5C000000,-0724,0836,12080,025.3,045.4,0.474,722.6,01.20,0.508
2015-03-19 00:10:00,1814E-3,5C000000,-0724,0836,12118,025.3,045.4,0.474,722.6,01.20,0.508
2015-03-19 00:11:00,1850E-3,5C000000,-0724,0835,12114,025.3,045.4,0.474,722.6,01.20,0.508
2015-03-19 00:12:00,1811E-3,5C000000,-0724,0834,12188,025.2,045.4,0.474,722.6,01.20,0.508
2015-03-19 00:13:00,1883E-3,5C000000,-0724,0835,12090,025.2,045.3,0.474,722.6,01.20,0.508
2015-03-19 00:14:00,1885E-3,5C000000,-0724,0834,12129,025.2,045.4,0.474,722.6,01.20,0.508
2015-03-19 00:15:00,1841E-3,5C000000,-0724,0836,12209,025.2,045.4,0.474,722.6,01.20,0.508
2015-03-19 00:16:00,1907E-3,5C000000,-0724,0835,12081,025.2,045.4,0.473,722.6,01.20,0.508
2015-03-19 00:17:00,1862E-3,5C000000,-0724,0836,12031,025.1,045.3,0.473,722.6,01.20,0.508
2015-03-19 00:18:00,2014E-3,5C000000,-0724,0835,12095,025.1,045.3,0.473,722.7,01.20,0.508
2015-03-19 00:19:00,1845E-3,5C000000,-0724,0835,12049,025.1,045.4,0.473,722.7,01.20,0.508
2015-03-19 00:20:00,1847E-3,5C000000,-0724,0835,12130,025.1,045.4,0.474,722.7,01.20,0.508
2015-03-19 00:21:00,1853E-3,5C000000,-0724,0835,12200,025.1,045.3,0.474,722.7,01.20,0.508
2015-03-19 00:22:00,1791E-3,5C000000,-0724,0836,12196,025.1,045.4,0.474,722.7,01.20,0.508
2015-03-19 00:23:00,1845E-3,5C000000,-0724,0835,12086,025.1,045.4,0.474,722.7,01.20,0.508
2015-03-19 00:24:00,2077E-3,5C000000,-0724,0835,12362,025.1,045.3,0.474,722.7,01.20,0.508
2015-03-19 00:25:00,1878E-3,5C000000,-0724,0834,12220,025.1,045.4,0.474,722.7,01.20,0.508
2015-03-19 00:26:00,1929E-3,5C000000,-0724,0834,12156,025.1,045.4,0.474,722.7,01.20,0.508
2015-03-19 00:27:00,1918E-3,5C000000,-0724,0833,12194,025.1,045.4,0.474,722.7,01.20,0.508
2015-03-19 00:28:00,1919E-3,5C000000,-0724,0833,12010,025.0,045.4,0.474,722.7,01.20,0.508
2015-03-19 00:29:00,1858E-3,5C000000,-0724,0835,12160,025.1,045.3,0.474,722.7,01.20,0.508
2015-03-19 00:30:00,2030E-3,5C000000,-0724,0833,11938,025.1,045.3,0.474,722.7,01.20,0.508
2015-03-19 00:31:00,1810E-3,5C000000,-0724,0835,12092,025.0,045.3,0.474,722.7,01.20,0.508
2015-03-19 00:32:00,1822E-3,5C000000,-0724,0834,12296,025.0,045.4,0.474,722.7,01.20,0.508
2015-03-19 00:33:00,1948E-3,5C000000,-0724,0834,12006,025.0,045.4,0.474,722.7,01.20,0.508
2015-03-19 00:34:00,1794E-3,5C000000,-0724,0834,12248,025.0,045.4,0.474,722.7,01.20,0.508
2015-03-19 00:35:00,1862E-3,5C000000,-0724,0834,12144,025.0,045.4,0.474,722.7,01.20,0.508
2015-03-19 00:36:00,1896E-3,5C000000,-0724,0835,12118,025.0,045.4,0.474,722.8,01.20,0.508
2015-03-19 00:37:00,1898E-3,5C000000,-0724,0834,12218,025.0,045.3,0.474,722.7,01.20,0.508
2015-03-19 00:38:00,1739E-3,5C000000,-0724,0835,12238,025.0,045.3,0.474,722.8,01.20,0.508
2015-03-19 00:39:00,1855E-3,5C000000,-0724,0835,12161,025.0,045.4,0.474,722.7,01.20,0.508
2015-03-19 00:40:00,1938E-3,5C000000,-0724,0835,12158,024.9,045.4,0.474,722.7,01.20,0.508
2015-03-19 00:41:00,1873E-3,5C000000,-0724,0835,12195,025.0,045.4,0.474,722.7,01.20,0.508
2015-03-19 00:42:00,1794E-3,5C000000,-0724,0835,12139,025.0,045.3,0.474,722.7,01.20,0.508
2015-03-19 00:43:00,1932E-3,5C000000,-0724,0834,12296,025.0,045.3,0.474,722.7,01.20,0.508
2015-03-19 00:44:00,1992E-3,5C000000,-0724,0835,12422,025.0,045.4,0.474,722.7,01.20,0.508
2015-03-19 00:45:00,1901E-3,5C000000,-0724,0834,12216,025.0,045.4,0.474,722.7,01.20,0.508
2015-03-19 00:46:00,1835E-3,5C000000,-0724,0835,12220,025.0,045.4,0.474,722.7,01.20,0.508
2015-03-19 00:47:00,1922E-3,5C000000,-0724,0834,12023,025.0,045.4,0.474,722.7,01.20,0.508
2015-03-19 00:48:00,1829E-3,5C000000,-0724,0833,11994,025.0,045.4,0.474,722.7,01.20,0.508
2015-03-19 00:49:00,1841E-3,5C000000,-0724,0834,12080,025.0,045.3,0.474,722.7,01.20,0.508
2015-03-19 00:50:00,1785E-3,5C000000,-0724,0834,12080,025.0,045.4,0.474,722.7,01.20,0.508
2015-03-19 00:51:00,1857E-3,5C000000,-0724,0834,12177,025.0,045.3,0.474,722.7,01.20,0.508
2015-03-19 00:52:00,1926E-3,5C000000,-0724,0834,12128,025.0,045.3,0.474,722.7,01.20,0.508
2015-03-19 00:53:00,1854E-3,5C000000,-0724,0834,12070,025.0,045.4,0.474,722.7,01.20,0.508
2015-03-19 00:54:00,1946E-3,5C000000,-0724,0835,12094,025.0,045.3,0.474,722.7,01.20,0.508
2015-03-19 00:55:00,1863E-3,5C000000,-0724,0835,12245,025.0,045.3,0.474,722.7,01.20,0.508
2015-03-19 00:56:00,1956E-3,5C000000,-0724,0834,12193,025.0,045.4,0.474,722.7,01.20,0.508
2015-03-19 00:57:00,1848E-3,5C000000,-0724,0835,12165,025.0,045.4,0.474,722.7,01.20,0.508
2015-03-19 00:58:00,1923E-3,5C000000,-0724,0835,12201,025.0,045.4,0.474,722.7,01.20,0.508
2015-03-19 00:59:00,1878E-3,5C000000,-0724,0835,12251,025.0,045.3,0.474,722.7,01.20,0.508
2015-03-19 01:00:00,1793E-3,5C000000,-0724,0835,12086,025.0,045.3,0.474,722.7,01.20,0.508
2015-03-19 01:01:00,1904E-3,5C000000,-0724,0834,12055,025.0,045.4,0.474,722.7,01.20,0.508
2015-03-19 01:02:00,1885E-3,5C000000,-0724,0835,12247,025.0,045.4,0.474,722.7,01.20,0.508
2015-03-19 01:03:00,1871E-3,5C000000,-0724,0834,12174,025.0,045.4,0.474,722.7,01.20,0.508
2015-03-19 01:04:00,1891E-3,5C000000,-0724,0834,12170,025.0,045.4,0.474,722.7,01.20,0.508
2015-03-19 01:05:00,1903E-3,5C000000,-0724,0835,12196,024.9,045.4,0.474,722.7,01.20,0.508
2015-03-19 01:06:00,1902E-3,5C000000,-0724,0835,12105,025.0,045.4,0.474,722.7,01.20,0.508
2015-03-19 01:07:00,1817E-3,5C000000,-0724,0834,12164,025.0,045.3,0.474,722.6,01.20,0.508
2015-03-19 01:08:00,1838E-3,5C000000,-0724,0835,12232,025.0,045.3,0.474,722.6,01.20,0.508
2015-03-19 01:09:00,1944E-3,5C000000,-0724,0835,12245,025.0,045.3,0.474,722.6,01.20,0.508
2015-03-19 01:10:00,1798E-3,5C000000,-0724,0834,12237,025.0,045.3,0.474,722.6,01.20,0.508
2015-03-19 01:11:00,1860E-3,5C000000,-0724,0834,12163,025.0,045.4,0.474,722.6,01.20,0.508
2015-03-19 01:12:00,1902E-3,5C000000,-0724,0834,12061,024.9,045.4,0.474,722.6,01.20,0.508
2015-03-19 01:13:00,2043E-3,5C000000,-0724,0834,12167,024.9,045.3,0.474,722.6,01.20,0.508
2015-03-19 01:14:00,1846E-3,5C000000,-0724,0834,12089,025.0,045.3,0.474,722.6,01.20,0.508
2015-03-19 01:15:00,1823E-3,5C000000,-0724,0834,12060,025.0,045.4,0.474,722.6,01.20,0.508
2015-03-19 01:16:00,1893E-3,5C000000,-0724,0834,11933,024.9,045.4,0.474,722.6,01.20,0.508
2015-03-19 01:17:00,1887E-3,5C000000,-0724,0833,12178,025.0,045.4,0.474,722.6,01.20,0.508
2015-03-19 01:18:00,1940E-3,5C000000,-0724,0835,11978,025.0,045.4,0.474,722.6,01.20,0.508
2015-03-19 01:19:00,1965E-3,5C000000,-0724,0835,12195,025.0,045.4,0.474,722.6,01.20,0.508
2015-03-19 01:20:00,1955E-3,5C000000,-0724,0835,12127,025.0,045.4,0.474,722.6,01.20,0.508
2015-03-19 01:21:00,1752E-3,5C000000,-0724,0835,12219,024.9,045.4,0.474,722.6,01.20,0.508
2015-03-19 01:22:00,2013E-3,5C000000,-0724,0834,12101,025.0,045.4,0.474,722.6,01.20,0.508
2015-03-19 01:23:00,1871E-3,5C000000,-0724,0835,12115,025.0,045.4,0.474,722.6,01.20,0.508
2015-03-19 01:24:00,1744E-3,5C000000,-0724,0835,12088,025.0,045.4,0.474,722.7,01.20,0.508
2015-03-19 01:25:00,1936E-3,5C000000,-0724,0835,12104,025.0,045.3,0.474,722.7,01.20,0.508
2015-03-19 01:26:00,1794E-3,5C000000,-0724,0835,12108,025.0,045.3,0.474,722.7,01.20,0.508
2015-03-19 01:27:00,1888E-3,5C000000,-0724,0835,12171,025.0,045.4,0.474,722.6,01.20,0.508
2015-03-19 01:28:00,1804E-3,5C000000,-0724,0835,12183,025.0,045.4,0.474,722.7,01.20,0.508
2015-03-19 01:29:00,1851E-3,5C000000,-0724,0835,12222,025.0,045.4,0.474,722.6,01.20,0.508
2015-03-19 01:30:00,1693E-3,5C000000,-0724,0835,12170,025.0,045.3,0.474,722.7,01.20,0.508
2015-03-19 01:31:00,1867E-3,5C000000,-0724,0835,12022,025.0,045.3,0.474,722.7,01.20,0.508
2015-03-19 01:32:00,1919E-3,5C000000,-0724,0835,12150,025.0,045.4,0.474,722.7,01.20,0.508
2015-03-19 01:33:00,1948E-3,5C000000,-0724,0834,11987,025.0,045.4,0.474,722.7,01.20,0.508
2015-03-19 01:34:00,1793E-3,5C000000,-0724,0835,12206,025.0,045.4,0.474,722.6,01.20,0.508
2015-03-19 01:35:00,2010E-3,5C000000,-0724,0836,12193,025.0,045.4,0.474,722.6,01.20,0.508
2015-03-19 01:36:00,1923E-3,5C000000,-0724,0835,12003,025.0,045.3,0.474,722.7,01.20,0.508
2015-03-19 01:37:00,1772E-3,5C000000,-0724,0835,11989,025.0,045.4,0.474,722.7,01.20,0.508
2015-03-19 01:38:00,1848E-3,5C000000,-0724,0835,12120,025.0,045.3,0.474,722.7,01.20,0.508
2015-03-19 01:39:00,2042E-3,5C000000,-0724,0835,12403,025.0,045.3,0.474,722.6,01.20,0.508
2015-03-19 01:40:00,1851E-3,5C000000,-0724,0835,12093,025.0,045.3,0.474,722.7,01.20,0.508
2015-03-19 01:41:00,1941E-3,5C000000,-0724,0834,12214,025.0,045.4,0.474,722.6,01.20,0.508
2015-03-19 01:42:00,1869E-3,5C000000,-0724,0835,12223,025.0,045.4,0.474,722.6,01.20,0.508
2015-03-19 01:43:00,1791E-3,5C000000,-0724,0834,12091,025.0,045.4,0.474,722.6,01.20,0.508
2015-03-19 01:44:00,1904E-3,5C000000,-0724,0835,12172,025.0,045.3,0.474,722.6,01.20,0.508
2015-03-19 01:45:00,1742E-3,5C000000,-0724,0835,12020,025.0,045.4,0.474,722.6,01.20,0.508
2015-03-19 01:46:00,1971E-3,5C000000,-0724,0834,12210,025.0,045.4,0.474,722.6,01.20,0.508
2015-03-19 01:47:00,1965E-3,5C000000,-0724,0835,12156,025.0,045.4,0.474,722.6,01.20,0.508
2015-03-19 01:48:00,1772E-3,5C000000,-0724,0835,12205,025.0,045.4,0.474,722.6,01.20,0.508
2015-03-19 01:49:00,1984E-3,5C000000,-0724,0834,12233,025.0,045.3,0.474,722.5,01.20,0.508
2015-03-19 01:50:00,1793E-3,5C000000,-0724,0834,12126,025.0,045.3,0.474,722.5,01.20,0.508
2015-03-19 01:51:00,1841E-3,5C000000,-0724,0835,12215,025.0,045.4,0.474,722.5,01.20,0.508
2015-03-19 01:52:00,1955E-3,5C000000,-0724,0834,12001,025.0,045.4,0.474,722.5,01.20,0.508
2015-03-19 01:53:00,1839E-3,5C000000,-0724,0835,12226,025.0,045.3,0.474,722.5,01.20,0.508
2015-03-19 01:54:00,1867E-3,5C000000,-0724,0836,12184,025.0,045.3,0.474,722.5,01.20,0.508
2015-03-19 01:55:00,1928E-3,5C000000,-0724,0835,12151,025.0,045.4,0.474,722.5,01.20,0.508
2015-03-19 01:56:00,1943E-3,5C000000,-0724,0834,12226,025.0,045.4,0.474,722.6,01.20,0.508
2015-03-19 01:57:00,1954E-3,5C000000,-0724,0835,12243,025.0,045.4,0.474,722.6,01.20,0.508
2015-03-19 01:58:00,1811E-3,5C000000,-0724,0834,12099,025.0,045.4,0.474,722.6,01.20,0.508
2015-03-19 01:59:00,1765E-3,5C000000,-0724,0835,12136,025.0,045.4,0.474,722.6,01.20,0.508
2015-03-19 02:00:00,1993E-3,5C000000,-0724,0834,12215,025.1,045.4,0.474,722.6,01.20,0.508
2015-03-19 02:01:00,1928E-3,5C000000,-0724,0835,12102,025.0,045.4,0.474,722.6,01.20,0.508
2015-03-19 02:02:00,1842E-3,5C000000,-0724,0835,12244,025.0,045.4,0.474,722.6,01.20,0.508
2015-03-19 02:03:00,1951E-3,5C000000,-0724,0834,12221,025.0,045.3,0.474,722.6,01.20,0.508
2015-03-19 02:04:00,1900E-3,5C000000,-0724,0835,12163,025.0,045.3,0.473,722.6,01.20,0.508
2015-03-19 02:05:00,1857E-3,5C000000,-0724,0835,12161,025.0,045.4,0.473,722.6,01.20,0.508
2015-03-19 02:06:00,1861E-3,5C000000,-0724,0835,12287,025.0,045.3,0.474,722.6,01.20,0.508
2015-03-19 02:07:00,1846E-3,5C000000,-0724,0835,11944,025.0,045.3,0.474,722.6,01.20,0.508
2015-03-19 02:08:00,1899E-3,5C000000,-0724,0835,12154,025.0,045.3,0.474,722.6,01.20,0.508
2015-03-19 02:09:00,1878E-3,5C000000,-0724,0836,12185,025.0,045.4,0.474,722.6,01.20,0.508
2015-03-19 02:10:00,1895E-3,5C000000,-0724,0835,12290,025.0,045.4,0.474,722.6,01.20,0.508
2015-03-19 02:11:00,1803E-3,5C000000,-0724,0835,11943,025.0,045.4,0.474,722.6,01.20,0.508
2015-03-19 02:12:00,1926E-3,5C000000,-0724,0835,12283,025.1,045.4,0.474,722.7,01.20,0.508
2015-03-19 02:13:00,1789E-3,5C000000,-0724,0835,12063,025.0,045.4,0.474,722.6,01.20,0.508
2015-03-19 02:14:00,1867E-3,5C000000,-0724,0836,12164,025.1,045.4,0.474,722.6,01.20,0.508
2015-03-19 02:15:00,1814E-3,5C000000,-0724,0836,12210,025.1,045.4,0.474,722.6,01.20,0.508
2015-03-19 02:16:00,1740E-3,5C000000,-0724,0835,12280,025.0,045.4,0.474,722.6,01.20,0.508
2015-03-19 02:17:00,1843E-3,5C000000,-0724,0835,12114,025.1,045.4,0.474,722.7,01.20,0.508
2015-03-19 02:18:00,1774E-3,5C000000,-0724,0835,12135,025.1,045.4,0.474,722.7,01.20,0.508
2015-03-19 02:19:00,1817E-3,5C000000,-0724,0835,12241,025.1,045.4,0.474,722.7,01.20,0.508
2015-03-19 02:20:00,1783E-3,5C000000,-0724,0836,12047,025.1,045.3,0.474,722.7,01.20,0.508
2015-03-19 02:21:00,1886E-3,5C000000,-0724,0835,12183,025.1,045.4,0.474,722.7,01.20,0.508
2015-03-19 02:22:00,1758E-3,5C000000,-0724,0834,12055,025.1,045.4,0.474,722.7,01.20,0.508
2015-03-19 02:23:00,1938E-3,5C000000,-0724,0835,12204,025.1,045.3,0.474,722.7,01.20,0.508
2015-03-19 02:24:00,1863E-3,5C000000,-0724,0835,12266,025.1,045.3,0.474,722.7,01.20,0.508
2015-03-19 02:25:00,1822E-3,5C000000,-0724,0835,12073,025.1,045.4,0.474,722.6,01.20,0.508
2015-03-19 02:26:00,1779E-3,5C000000,-0724,0835,12135,025.1,045.4,0.473,722.7,01.20,0.508
2015-03-19 02:27:00,1772E-3,5C000000,-0724,0835,12071,025.1,045.4,0.474,722.7,01.20,0.508
2015-03-19 02:28:00,1927E-3,5C000000,-0724,0836,12250,025.1,045.4,0.474,722.7,01.20,0.508
2015-03-19 02:29:00,1893E-3,5C000000,-0724,0835,12130,025.1,045.4,0.474,722.7,01.20,0.508
2015-03-19 02:30:00,1787E-3,5C000000,-0724,0835,12140,025.1,045.4,0.474,722.7,01.20,0.508
2015-03-19 02:31:00,1684E-3,5C000000,-0724,0834,12200,025.1,045.3,0.474,722.7,01.20,0.508
2015-03-19 02:32:00,1852E-3,5C000000,-0724,0835,12037,025.1,045.4,0.474,722.7,01.20,0.508
2015-03-19 02:33:00,2002E-3,5C000000,-0724,0835,12164,025.1,045.3,0.474,722.7,01.20,0.508
2015-03-19 02:34:00,1778E-3,5C000000,-0724,0835,12041,025.1,045.3,0.474,722.7,01.20,0.508
2015-03-19 02:35:00,1701E-3,5C000000,-0724,0836,12161,025.1,045.3,0.474,722.7,01.20,0.508
2015-03-19 02:36:00,1804E-3,5C000000,-0724,0835,12212,025.1,045.4,0.474,722.7,01.20,0.508
2015-03-19 02:37:00,1790E-3,5C000000,-0724,0835,12122,025.1,045.4,0.474,722.7,01.20,0.508
2015-03-19 02:38:00,1738E-3,5C000000,-0724,0835,12128,025.1,045.3,0.474,722.7,01.20,0.508
2015-03-19 02:39:00,1891E-3,5C000000,-0724,0835,12005,025.1,045.3,0.474,722.7,01.20,0.508
2015-03-19 02:40:00,1898E-3,5C000000,-0724,0835,12116,025.1,045.4,0.474,722.7,01.20,0.508
2015-03-19 02:41:00,1911E-3,5C000000,-0724,0836,12152,025.1,045.4,0.474,722.7,01.20,0.508
2015-03-19 02:42:00,1795E-3,5C000000,-0724,0834,12103,025.1,045.3,0.474,722.7,01.20,0.508
2015-03-19 02:43:00,1846E-3,5C000000,-0724,0836,12170,025.1,045.3,0.473,722.7,01.20,0.508
2015-03-19 02:44:00,1856E-3,5C000000,-0724,0836,12177,025.1,045.4,0.473,722.7,01.20,0.508
2015-03-19 02:45:00,1967E-3,5C000000,-0724,0836,12275,025.1,045.4,0.473,722.7,01.20,0.508
2015-03-19 02:46:00,1754E-3,5C000000,-0724,0835,12179,025.1,045.4,0.473,722.7,01.20,0.508
2015-03-19 02:47:00,1921E-3,5C000000,-0724,0835,11983,025.1,045.4,0.474,722.8,01.20,0.508
2015-03-19 02:48:00,1887E-3,5C000000,-0724,0835,12191,025.1,045.4,0.474,722.7,01.20,0.508
2015-03-19 02:49:00,1955E-3,5C000000,-0724,0835,12151,025.1,045.3,0.474,722.8,01.20,0.508
2015-03-19 02:50:00,1864E-3,5C000000,-0724,0835,11999,025.1,045.4,0.474,722.8,01.20,0.508
2015-03-19 02:51:00,1846E-3,5C000000,-0724,0835,12061,025.1,045.4,0.474,722.8,01.20,0.508
2015-03-19 02:52:00,1852E-3,5C000000,-0724,0835,12199,025.1,045.4,0.474,722.8,01.20,0.508
2015-03-19 02:53:00,1950E-3,5C000000,-0724,0835,12089,025.1,045.3,0.474,722.8,01.20,0.508
2015-03-19 02:54:00,1947E-3,5C000000,-0724,0835,12160,025.1,045.3,0.474,722.8,01.20,0.508
2015-03-19 02:55:00,1701E-3,5C000000,-0724,0835,12060,025.1,045.4,0.474,722.9,01.20,0.508
2015-03-19 02:56:00,1791E-3,5C000000,-0724,0835,12212,025.1,045.4,0.474,722.9,01.20,0.508
2015-03-19 02:57:00,1854E-3,5C000000,-0724,0835,12117,025.1,045.3,0.474,722.9,01.20,0.508
2015-03-19 02:58:00,1853E-3,5C000000,-0724,0834,12066,025.1,045.3,0.474,722.9,01.20,0.508
2015-03-19 02:59:00,1893E-3,5C000000,-0724,0834,12245,025.1,045.4,0.474,722.9,01.20,0.508
2015-03-19 03:00:00,1957E-3,5C000000,-0724,0835,12122,025.1,045.4,0.474,722.9,01.20,0.508
2015-03-19 03:01:00,1903E-3,5C000000,-0724,0835,12166,025.1,045.4,0.474,722.9,01.20,0.508
2015-03-19 03:02:00,1836E-3,5C000000,-0724,0835,12141,025.1,045.4,0.474,722.9,01.20,0.508
2015-03-19 03:03:00,1907E-3,5C000000,-0724,0836,12244,025.1,045.4,0.474,722.9,01.20,0.508
2015-03-19 03:04:00,1797E-3,5C000000,-0724,0835,12164,025.2,045.3,0.474,722.9,01.20,0.508
2015-03-19 03:05:00,1803E-3,5C000000,-0724,0835,12230,025.1,045.3,0.474,722.9,01.20,0.508
2015-03-19 03:06:00,1810E-3,5C000000,-0724,0835,12165,025.1,045.3,0.474,722.9,01.20,0.508
2015-03-19 03:07:00,1983E-3,5C000000,-0724,0835,12099,025.1,045.4,0.474,722.9,01.20,0.508
2015-03-19 03:08:00,1798E-3,5C000000,-0724,0834,12213,025.1,045.4,0.474,722.9,01.20,0.508
2015-03-19 03:09:00,1851E-3,5C000000,-0724,0835,12085,025.1,045.4,0.474,722.9,01.20,0.508
2015-03-19 03:10:00,1921E-3,5C000000,-0724,0834,12177,025.1,045.4,0.474,722.9,01.20,0.508
2015-03-19 03:11:00,1881E-3,5C000000,-0724,0836,12089,025.1,045.4,0.473,722.9,01.20,0.508
2015-03-19 03:12:00,1835E-3,5C000000,-0724,0835,12124,025.1,045.3,0.473,722.9,01.20,0.508
2015-03-19 03:13:00,2011E-3,5C000000,-0724,0835,12224,025.1,045.3,0.474,722.9,01.20,0.508
2015-03-19 03:14:00,1883E-3,5C000000,-0724,0835,12184,025.1,045.4,0.474,722.9,01.20,0.508
2015-03-19 03:15:00,1867E-3,5C000000,-0724,0836,12194,025.1,045.4,0.474,722.9,01.20,0.508
2015-03-19 03:16:00,1858E-3,5C000000,-0724,0835,12132,025.2,045.4,0.474,722.9,01.20,0.508
2015-03-19 03:17:00,1837E-3,5C000000,-0724,0835,12171,025.2,045.4,0.474,722.9,01.20,0.508
2015-03-19 03:18:00,1992E-3,5C000000,-0724,0835,12240,025.2,045.4,0.474,722.9,01.20,0.508
2015-03-19 03:19:00,1811E-3,5C000000,-0724,0835,12162,025.2,045.4,0.474,722.9,01.20,0.508
2015-03-19 03:20:00,1742E-3,5C000000,-0724,0835,12076,025.2,045.4,0.474,722.9,01.20,0.508
2015-03-19 03:21:00,1900E-3,5C000000,-0724,0836,12068,025.2,045.4,0.474,722.9,01.20,0.508
2015-03-19 03:22:00,1850E-3,5C000000,-0724,0836,12112,025.2,045.3,0.473,722.9,01.20,0.508
2015-03-19 03:23:00,1867E-3,5C000000,-0724,0835,12107,025.2,045.4,0.473,722.9,01.20,0.508
2015-03-19 03:24:00,1843E-3,5C000000,-0724,0835,12097,025.2,045.4,0.473,722.9,01.20,0.508
2015-03-19 03:25:00,1853E-3,5C000000,-0724,0835,12026,025.2,045.4,0.474,722.9,01.20,0.508
2015-03-19 03:26:00,1798E-3,5C000000,-0724,0835,12084,025.2,045.4,0.474,722.9,01.20,0.508
2015-03-19 03:27:00,1808E-3,5C000000,-0724,0834,12112,025.2,045.4,0.474,722.9,01.20,0.508
2015-03-19 03:28:00,1863E-3,5C000000,-0724,0835,12178,025.2,045.4,0.474,722.9,01.20,0.508
2015-03-19 03:29:00,1830E-3,5C000000,-0724,0835,12097,025.2,045.3,0.474,722.9,01.20,0.508
2015-03-19 03:30:00,1989E-3,5C000000,-0724,0836,12160,025.2,045.3,0.474,722.9,01.20,0.508
2015-03-19 03:31:00,1824E-3,5C000000,-0724,0835,12306,025.2,045.4,0.474,722.9,01.20,0.508
2015-03-19 03:32:00,1887E-3,5C000000,-0724,0836,12254,025.2,045.3,0.474,722.9,01.20,0.508
2015-03-19 03:33:00,1834E-3,5C000000,-0724,0836,12210,025.2,045.4,0.474,722.9,01.20,0.508
2015-03-19 03:34:00,1876E-3,5C000000,-0724,0835,12146,025.2,045.4,0.473,723.0,01.20,0.508
2015-03-19 03:35:00,1990E-3,5C000000,-0724,0835,12097,025.2,045.4,0.473,723.0,01.20,0.508
2015-03-19 03:36:00,1756E-3,5C000000,-0724,0836,12286,025.2,045.3,0.473,723.0,01.20,0.508
2015-03-19 03:37:00,2051E-3,5C000000,-0724,0835,12103,025.2,045.3,0.473,723.0,01.20,0.508
2015-03-19 03:38:00,1829E-3,5C000000,-0724,0836,12263,025.2,045.4,0.474,723.0,01.20,0.508
2015-03-19 03:39:00,1994E-3,5C000000,-0724,0836,11987,025.2,045.4,0.474,723.0,01.20,0.508
2015-03-19 03:40:00,1795E-3,5C000000,-0724,0835,12193,025.2,045.4,0.474,723.0,01.20,0.508
2015-03-19 03:41:00,1749E-3,5C000000,-0724,0835,12097,025.2,045.4,0.474,723.0,01.20,0.508
2015-03-19 03:42:00,1826E-3,5C000000,-0724,0836,12197,025.2,045.4,0.474,723.0,01.20,0.508
2015-03-19 03:43:00,1836E-3,5C000000,-0724,0837,12220,025.2,045.3,0.474,723.0,01.20,0.508
2015-03-19 03:44:00,1852E-3,5C000000,-0724,0836,12253,025.2,045.4,0.474,723.0,01.20,0.508
2015-03-19 03:45:00,1904E-3,5C000000,-0724,0836,12023,025.2,045.4,0.474,723.0,01.20,0.508
2015-03-19 03:46:00,1952E-3,5C000000,-0724,0835,12179,025.2,045.4,0.473,723.0,01.20,0.508
2015-03-19 03:47:00,1860E-3,5C000000,-0724,0835,12152,025.2,045.3,0.473,723.0,01.20,0.508
2015-03-19 03:48:00,1828E-3,5C000000,-0724,0835,12103,025.2,045.4,0.473,723.0,01.20,0.508
2015-03-19 03:49:00,1887E-3,5C000000,-0724,0836,12156,025.2,045.4,0.474,723.0,01.20,0.508
2015-03-19 03:50:00,1756E-3,5C000000,-0724,0836,12030,025.2,045.4,0.474,723.0,01.20,0.508
2015-03-19 03:51:00,1899E-3,5C000000,-0724,0836,12274,025.2,045.4,0.474,723.0,01.20,0.508
2015-03-19 03:52:00,1850E-3,5C000000,-0724,0835,12067,025.3,045.4,0.474,723.0,01.20,0.508
2015-03-19 03:53:00,1927E-3,5C000000,-0724,0836,12143,025.2,045.4,0.474,723.0,01.20,0.508
2015-03-19 03:54:00,1871E-3,5C000000,-0724,0835,12124,025.2,045.4,0.474,723.0,01.20,0.508
2015-03-19 03:55:00,1895E-3,5C000000,-0724,0836,12212,025.2,045.4,0.474,723.0,01.20,0.508
2015-03-19 03:56:00,1980E-3,5C000000,-0724,0834,12137,025.2,045.4,0.473,723.0,01.20,0.508
2015-03-19 03:57:00,1806E-3,5C000000,-0724,0836,12046,025.2,045.3,0.473,723.1,01.20,0.508
2015-03-19 03:58:00,1879E-3,5C000000,-0724,0835,12132,025.2,045.4,0.473,723.0,01.20,0.508
2015-03-19 03:59:00,1941E-3,5C000000,-0724,0835,12094,025.2,045.3,0.473,723.0,01.20,0.508
2015-03-19 04:00:00,1951E-3,5C000000,-0724,0836,12308,025.2,045.4,0.474,723.1,01.20,0.508
2015-03-19 04:01:00,1776E-3,5C000000,-0724,0835,12152,025.2,045.4,0.474,723.1,01.20,0.508
2015-03-19 04:02:00,1925E-3,5C000000,-0724,0835,12039,025.2,045.4,0.474,723.1,01.20,0.508
2015-03-19 04:03:00,1900E-3,5C000000,-0724,0834,12120,025.2,045.3,0.474,723.1,01.20,0.508
2015-03-19 04:04:00,1908E-3,5C000000,-0724,0835,12166,025.2,045.4,0.474,723.1,01.20,0.508
2015-03-19 04:05:00,1787E-3,5C000000,-0724,0836,12270,025.2,045.4,0.474,723.1,01.20,0.508
2015-03-19 04:06:00,1923E-3,5C000000,-0724,0835,12220,025.2,045.4,0.474,723.1,01.20,0.508
2015-03-19 04:07:00,1844E-3,5C000000,-0724,0836,12182,025.2,045.4,0.474,723.1,01.20,0.508
2015-03-19 04:08:00,1802E-3,5C000000,-0724,0835,12166,025.2,045.4,0.473,723.1,01.20,0.508
2015-03-19 04:09:00,1752E-3,5C000000,-0724,0835,12253,025.3,045.3,0.473,723.1,01.20,0.508
2015-03-19 04:10:00,1929E-3,5C000000,-0724,0834,12005,025.2,045.4,0.473,723.1,01.20,0.508
2015-03-19 04:11:00,1746E-3,5C000000,-0724,0836,12155,025.3,045.4,0.474,723.1,01.20,0.508
2015-03-19 04:12:00,1807E-3,5C000000,-0724,0836,12213,025.3,045.4,0.474,723.1,01.20,0.508
2015-03-19 04:13:00,1906E-3,5C000000,-0724,0835,12019,025.3,045.4,0.474,723.1,01.20,0.508
2015-03-19 04:14:00,1949E-3,5C000000,-0724,0836,12261,025.3,045.4,0.474,723.1,01.20,0.508
2015-03-19 04:15:00,1982E-3,5C000000,-0724,0835,12103,025.3,045.4,0.474,723.1,01.20,0.508
2015-03-19 04:16:00,1897E-3,5C000000,-0724,0835,12017,025.3,045.4,0.474,723.1,01.20,0.508
2015-03-19 04:17:00,1927E-3,5C000000,-0724,0836,12133,025.2,045.4,0.474,723.1,01.20,0.508
2015-03-19 04:18:00,1889E-3,5C000000,-0724,0836,12111,025.3,045.3,0.473,723.1,01.20,0.508
2015-03-19 04:19:00,1892E-3,5C000000,-0724,0836,12051,025.3,045.4,0.473,723.1,01.20,0.508
2015-03-19 04:20:00,1864E-3,5C000000,-0724,0835,11990,025.3,045.3,0.473,723.1,01.20,0.508